[[{"header":{"parameterUnit":"m.s-1","parameterCategory":1,"la1":30.2991,"la2":30.254,"lo1":-89.0895,"lo2":-89.0444,"dy":0.0017,"dx":0.0017,"nx":28,"ny":28,"refTime":"2023-07-21T21:00:00:Z","depth":0,"parameterNumber":2,"parameterNumberName":"U-component_of_WINDS"},"data":[0,0,0,0,0,0,0,0,0,0,0,0,0,0,0,0,0,0,0,0,0,0,0,0,0,0,0,0,0,0,0,0,0,0,0,0,0,0,0,0,0,0,0,0,0,0,0,0,0,0,0,0,0,0,0,0,0,0,5.1739,5.1741,0,5.1907,5.1908,5.191,5.1855,5.1851,5.1848,5.1844,5.2019,5.2027,5.2035,0,0,0,0,0,0,0,0,0,0,0,0,0,5.1374,5.1381,5.1739,5.1741,5.1743,5.1906,5.1909,5.1911,5.1856,5.1851,5.1847,5.1843,5.2017,5.2026,5.2036,0,0,0,0,0,0,0,0,0,0,0,0,0,5.1536,5.1383,5.1739,5.1735,5.1737,5.1906,5.1909,5.1911,5.1857,5.1851,5.1846,5.1841,5.2014,5.2025,5.2037,5.2221,0,0,5.2074,5.2079,0,0,0,0,0,0,0,0,5.1527,5.155,5.1734,5.1736,5.1738,5.1854,5.1844,5.2015,5.1858,5.1811,5.1844,5.1838,5.1969,5.1984,5.2028,5.2229,5.2237,5.2075,5.2083,5.2088,5.2091,0,0,0,0,0,0,0,5.1516,5.1542,5.1805,5.1736,5.1739,5.1726,5.1743,5.1876,5.1919,5.1815,5.1811,5.1832,5.1969,5.2017,5.2032,5.2239,5.2075,5.2086,5.2093,5.2098,5.2599,5.2605,0,0,0,0,0,0,5.1503,5.1533,5.18,5.181,5.1617,5.1737,5.1756,5.1822,5.1917,5.1926,5.1836,5.1828,5.1999,5.2018,5.2038,5.2259,5.2088,5.2099,5.2106,5.2593,5.2601,5.2607,0,0,0,0,0,0,5.1496,5.1527,5.1793,5.1671,5.1704,5.1749,5.1824,5.1829,5.1876,5.1933,5.1941,5.1876,5.1995,5.2021,5.2175,5.2264,5.2104,5.2115,5.2586,5.2596,5.2604,5.2702,0,0,0,0,0,0,5.1485,5.1525,5.1595,5.1673,5.171,5.1928,5.1829,5.1836,5.1896,5.1888,5.1973,5.1982,5.1993,5.2158,5.2187,5.2278,5.2125,5.2578,5.259,5.2601,5.2691,5.2714,5.2733,0,0,0,0,0,5.1472,5.1616,5.1598,5.1631,5.1798,5.1933,5.1954,5.1963,5.1904,5.1974,5.2011,5.1979,5.2249,5.2174,5.2207,5.2302,5.2573,5.2587,5.26,5.2682,5.2709,5.2732,0,0,0,0,0,0,5.1549,5.1627,5.1608,5.1781,5.1851,5.1923,5.2013,5.1991,5.208,5.2069,5.2076,5.2096,5.2255,5.2294,5.2209,5.2485,5.2402,5.2423,5.2453,5.248,5.25,5.2487,5.2135,0,0,0,0,0,5.1585,5.1687,5.175,5.1897,5.1933,5.1967,5.2026,5.2026,5.2099,5.2129,5.2177,5.225,5.2351,5.2418,5.2514,5.2697,5.2715,5.2779,5.2799,5.2816,5.2834,5.2933,5.2962,5.2652,5.2652,5.2652,0,0,5.1663,5.1718,5.1782,5.1914,5.1968,5.2074,5.1992,5.2108,5.2187,5.2147,5.2295,5.2333,5.2415,5.2585,5.2662,5.2622,5.2924,5.2833,5.2846,5.2855,5.295,5.298,5.3006,5.2661,5.266,5.2658,0,0,5.1858,5.191,5.2038,5.2093,5.2176,5.2197,5.2228,5.2304,5.2328,5.2477,5.2449,5.2543,5.2717,5.2777,5.283,5.3047,5.3021,5.3079,5.3187,5.3284,5.3308,5.333,5.3407,5.3435,5.3096,5.3097,5.3097,0,5.1944,5.2102,5.2107,5.2225,5.2284,5.2251,5.2381,5.2435,5.2545,5.2587,5.2541,5.2758,5.2811,5.2994,5.3047,5.3091,5.3127,5.3069,5.3304,5.3326,5.3346,5.342,5.3449,5.3103,5.3102,5.3102,5.3101,0,5.2204,5.2314,5.2407,5.2513,5.2582,5.2706,5.273,5.2801,5.2795,5.2822,5.2974,5.3036,5.3144,5.3188,5.3184,5.3371,5.3344,5.3301,5.3218,5.3382,5.3452,5.348,5.3112,5.311,5.3108,5.3107,0,0,5.2452,5.2558,5.2592,5.264,5.2728,5.2814,5.2936,5.3041,5.3101,5.3178,5.3281,5.3429,5.339,5.345,5.3453,5.3538,5.3706,5.3485,5.3487,5.3523,5.3915,5.3946,5.3979,5.3689,5.3695,5.3699,5.3908,0,5.2654,5.2867,5.2875,5.3071,5.3172,5.3142,5.3249,5.3315,5.3344,5.3435,5.3466,5.3571,5.3512,5.3548,5.3631,5.3668,5.3785,5.3653,5.3786,5.379,5.3765,5.4015,5.4049,5.4243,5.3935,5.394,5.3943,0,5.2918,5.3002,5.3208,5.3281,5.3324,5.3419,5.3516,5.3603,5.3678,5.3692,5.3759,5.375,5.3876,5.3789,5.3962,5.3873,5.3928,5.3954,5.3962,5.3974,5.3876,5.4034,5.4306,5.4335,5.3986,5.3983,5.398,0,5.3078,5.3243,5.3387,5.3429,5.3518,5.3586,5.3626,5.3695,5.3758,5.3842,5.3883,5.3982,5.4036,5.4113,5.413,5.4066,5.4305,5.4219,5.4321,5.432,5.4372,5.4369,5.4655,5.4408,5.4408,5.4407,5.4407,0,5.3303,5.343,5.346,5.3548,5.3689,5.3698,5.3837,5.3873,5.3935,5.4031,5.4012,5.4102,5.4119,5.4214,5.4228,5.437,5.4395,5.4411,5.4413,5.4412,5.441,5.4448,5.4435,5.4415,5.4413,5.4412,5.441,0,5.3506,5.3531,5.3686,5.3757,5.3778,5.3879,5.394,5.4026,5.4051,5.4173,5.4202,5.4243,5.4353,5.4378,5.4509,5.4519,5.4686,5.4676,5.4661,5.466,5.476,5.475,5.5081,5.5125,5.4849,5.4852,5.4854,0,5.3648,5.3744,5.3826,5.3887,5.3931,5.4031,5.4094,5.4106,5.4173,5.4265,5.4339,5.4447,5.4533,5.4711,5.4753,5.4853,5.4845,5.4954,5.486,5.4856,5.4846,5.484,5.4849,5.4972,5.4975,5.4977,5.4979,0,5.3897,5.3904,5.3995,5.4091,5.4166,5.4243,5.4315,5.4367,5.4389,5.4466,5.4577,5.4644,5.4777,5.4884,5.4985,5.5027,5.5008,5.5008,5.5037,5.5037,5.5024,5.5032,5.4709,5.5,5.4998,5.4997,5.4996,5.4995,5.4073,5.4157,5.4227,5.4329,5.4385,5.4453,5.4536,5.4572,5.4665,5.4773,5.4775,5.4897,5.4969,5.5102,5.515,5.5246,5.5212,5.5254,5.5265,5.5275,5.5283,5.5009,5.5265,5.5264,5.5264,5.5263,5.5263,0,5.4321,5.4364,5.4458,5.4559,5.464,5.4612,5.4692,5.4761,5.4868,5.4936,5.5021,5.5149,5.5253,5.5303,5.5406,5.5473,5.5467,5.55,5.5495,5.5505,5.5308,5.5273,5.5503,5.5503,5.5503,5.5503,5.5503,5.5503,5.4459,5.4599,5.4615,5.4783,5.4826,5.4944,5.4991,5.5055,5.5109,5.5252,5.5338,5.5369,5.5431,5.5538,5.5632,5.5644,5.5683,5.572,5.5728,5.5543,5.5519,5.5495,5.5462,5.5729,5.5729,5.5917,5.5919,5.592]},{"header":{"parameterUnit":"m.s-1","parameterCategory":1,"la1":30.2991,"la2":30.254,"lo1":-89.0895,"lo2":-89.0444,"dy":0.0017,"dx":0.0017,"nx":28,"ny":28,"refTime":"2023-07-21T21:00:00:Z","depth":0,"parameterNumber":3,"parameterNumberName":"V-component_of_WINDS"},"data":[0,0,0,0,0,0,0,0,0,0,0,0,0,0,0,0,0,0,0,0,0,0,0,0,0,0,0,0,0,0,0,0,0,0,0,0,0,0,0,0,0,0,0,0,0,0,0,0,0,0,0,0,0,0,0,0,0,0,0.332,0.3321,0,0.333,0.3331,0.3331,0.3317,0.3316,0.3316,0.3315,0.3327,0.3327,0.3328,0,0,0,0,0,0,0,0,0,0,0,0,0,0.329,0.329,0.332,0.3321,0.3321,0.333,0.3331,0.3331,0.3317,0.3316,0.3315,0.3315,0.3326,0.3327,0.3328,0,0,0,0,0,0,0,0,0,0,0,0,0,0.3302,0.3291,0.332,0.3315,0.3314,0.333,0.3331,0.3331,0.3317,0.3316,0.3315,0.3315,0.3326,0.3327,0.3328,0.3351,0,0,0.3332,0.3332,0,0,0,0,0,0,0,0,0.3301,0.3303,0.3316,0.3315,0.3315,0.3321,0.3324,0.3337,0.3317,0.3316,0.3315,0.3314,0.3326,0.3327,0.333,0.3351,0.3352,0.3332,0.3333,0.3333,0.3333,0,0,0,0,0,0,0,0.33,0.3302,0.3324,0.3316,0.3315,0.3312,0.3313,0.3326,0.3325,0.3316,0.3315,0.3316,0.3325,0.3329,0.333,0.3352,0.3332,0.3333,0.3334,0.3334,0.3391,0.3391,0,0,0,0,0,0,0.33,0.3302,0.3324,0.3325,0.3306,0.3313,0.3314,0.332,0.3325,0.3325,0.3317,0.3316,0.3328,0.3329,0.3331,0.3357,0.3333,0.3334,0.3335,0.339,0.3391,0.3392,0,0,0,0,0,0,0.3299,0.3302,0.3324,0.3313,0.3315,0.3314,0.3321,0.3321,0.3325,0.3325,0.3325,0.3321,0.3327,0.3329,0.3345,0.3357,0.3335,0.3336,0.3389,0.339,0.3391,0.341,0,0,0,0,0,0,0.3299,0.3302,0.331,0.3313,0.3316,0.3338,0.3322,0.3321,0.3327,0.3325,0.3329,0.3329,0.3327,0.3344,0.3347,0.3358,0.3337,0.3388,0.3389,0.3391,0.3408,0.3411,0.3414,0,0,0,0,0,0.3297,0.3316,0.3311,0.3314,0.3327,0.3339,0.3341,0.3337,0.3328,0.3336,0.3336,0.3329,0.3355,0.3346,0.3349,0.3361,0.3387,0.3389,0.3391,0.3407,0.3411,0.3414,0,0,0,0,0,0,0.3315,0.3316,0.3311,0.333,0.3334,0.3337,0.3347,0.3341,0.3348,0.3347,0.3342,0.3343,0.336,0.3362,0.3351,0.3382,0.337,0.3372,0.3381,0.3385,0.3388,0.3387,0.3338,0,0,0,0,0,0.3321,0.333,0.3331,0.3348,0.335,0.3348,0.3354,0.335,0.3355,0.3356,0.3358,0.3363,0.3372,0.3378,0.3387,0.3408,0.3409,0.3418,0.3421,0.3423,0.3426,0.3437,0.3441,0.3398,0.3398,0.3398,0,0,0.3333,0.3335,0.3342,0.3352,0.3355,0.3365,0.335,0.3362,0.3369,0.3358,0.3374,0.3375,0.338,0.3399,0.3407,0.3401,0.3438,0.3426,0.3428,0.3429,0.3439,0.3443,0.3447,0.3399,0.3399,0.3398,0,0,0.3362,0.3364,0.3379,0.3381,0.3386,0.3384,0.3388,0.339,0.339,0.3406,0.3397,0.3406,0.3422,0.3426,0.343,0.3459,0.3453,0.3462,0.3478,0.3489,0.3492,0.3495,0.3506,0.3509,0.3464,0.3464,0.3464,0,0.3377,0.3392,0.3387,0.3399,0.3403,0.3393,0.3407,0.3411,0.3418,0.3421,0.3414,0.3433,0.3436,0.3455,0.3462,0.3465,0.3469,0.3462,0.3492,0.3495,0.3498,0.3508,0.3512,0.3465,0.3465,0.3465,0.3465,0,0.3411,0.3421,0.3433,0.3439,0.3445,0.3458,0.3454,0.3461,0.3456,0.3456,0.3471,0.3473,0.3482,0.3486,0.3483,0.3505,0.3501,0.3493,0.348,0.3503,0.3512,0.3516,0.3467,0.3466,0.3466,0.3466,0,0,0.3452,0.3454,0.3458,0.3461,0.3464,0.3472,0.3485,0.3493,0.3498,0.3503,0.3514,0.3527,0.3519,0.3524,0.352,0.353,0.3552,0.352,0.352,0.3526,0.3577,0.3583,0.3588,0.3547,0.3548,0.3549,0.3576,0,0.348,0.3502,0.3497,0.3518,0.3527,0.3517,0.3528,0.3531,0.353,0.3538,0.3538,0.3547,0.3536,0.3539,0.3548,0.3548,0.3562,0.3545,0.3558,0.3558,0.3557,0.3592,0.3599,0.3625,0.358,0.3581,0.3581,0,0.3517,0.3522,0.3544,0.3546,0.3549,0.3559,0.3566,0.3573,0.3577,0.3576,0.358,0.3574,0.3587,0.3573,0.359,0.3579,0.3583,0.3584,0.3585,0.3586,0.3571,0.3595,0.3634,0.3638,0.3587,0.3586,0.3586,0,0.3544,0.3557,0.3572,0.3575,0.3577,0.3584,0.3585,0.3587,0.3592,0.3598,0.3601,0.3608,0.3612,0.3618,0.3614,0.3605,0.3632,0.3618,0.3631,0.3631,0.3638,0.3638,0.3678,0.364,0.364,0.364,0.364,0,0.3577,0.3591,0.3584,0.3594,0.3609,0.3603,0.3618,0.3618,0.362,0.3629,0.362,0.3629,0.3623,0.3632,0.3629,0.3643,0.3645,0.3644,0.3644,0.3645,0.3646,0.3649,0.3647,0.3641,0.3641,0.3641,0.364,0,0.3611,0.3607,0.3622,0.3623,0.3623,0.3634,0.3634,0.3643,0.3641,0.3652,0.3655,0.3652,0.3661,0.3657,0.3667,0.3665,0.3684,0.368,0.3683,0.3682,0.3695,0.3694,0.374,0.3745,0.3703,0.3704,0.3704,0,0.3632,0.3643,0.3643,0.3649,0.365,0.3659,0.3663,0.3657,0.3663,0.3667,0.3675,0.3683,0.3689,0.3704,0.3703,0.371,0.3707,0.3723,0.3708,0.371,0.3708,0.3707,0.3708,0.3726,0.3726,0.3727,0.3727,0,0.367,0.3668,0.3675,0.3681,0.3686,0.3691,0.3695,0.37,0.3694,0.37,0.3709,0.3714,0.3723,0.3731,0.3738,0.3739,0.3732,0.3731,0.3735,0.3737,0.3738,0.3738,0.3691,0.373,0.373,0.373,0.373,0.3729,0.3699,0.3707,0.3709,0.3717,0.3719,0.3723,0.373,0.3729,0.3736,0.3743,0.3739,0.3749,0.3752,0.376,0.3762,0.377,0.3764,0.3769,0.377,0.3772,0.3773,0.3736,0.3771,0.3771,0.3771,0.3771,0.377,0,0.3737,0.3737,0.3744,0.375,0.3756,0.3748,0.3751,0.3757,0.3766,0.3769,0.3775,0.3785,0.3792,0.3791,0.3799,0.3805,0.3802,0.3807,0.3807,0.3807,0.3778,0.3775,0.3809,0.3809,0.3809,0.3809,0.3809,0.3809,0.3757,0.3771,0.3769,0.3783,0.3784,0.3793,0.3796,0.3799,0.3801,0.3813,0.3819,0.3818,0.3819,0.3826,0.3833,0.3832,0.3835,0.3842,0.384,0.3813,0.3809,0.3806,0.3802,0.3842,0.3842,0.3868,0.3868,0.3869]}]]